[[{"header":{"parameterUnit":"m.s-1","parameterCategory":1,"la1":30.2991,"la2":30.254,"lo1":-89.0895,"lo2":-89.0444,"dy":0.0017,"dx":0.0017,"nx":28,"ny":28,"refTime":"2025-04-13T21:00:00:Z","depth":0,"parameterNumber":2,"parameterNumberName":"U-component_of_WINDS"},"data":[0,0,0,0,0,0,0,0,0,0,0,0,0,0,0,0,0,0,0,0,0,0,0,0,0,0,0,0,0,0,0,0,0,0,0,0,0,0,0,0,0,0,0,0,0,0,0,0,0,0,0,0,0,0,0,0,0,0,5.0939,5.094,0,5.1056,5.1057,5.1058,5.099,5.0987,5.0984,5.0981,5.1099,5.1105,5.1111,0,0,0,0,0,0,0,0,0,0,0,0,0,5.0659,5.0664,5.0939,5.094,5.0942,5.1055,5.1057,5.1059,5.0991,5.0987,5.0983,5.0979,5.1097,5.1104,5.1111,0,0,0,0,0,0,0,0,0,0,0,0,0,5.0778,5.0666,5.0939,5.0922,5.0922,5.1055,5.1057,5.1059,5.0992,5.0987,5.0982,5.0977,5.1094,5.1103,5.1112,5.1269,0,0,5.1141,5.1145,0,0,0,0,0,0,0,0,5.0772,5.0789,5.0923,5.0923,5.0923,5.1003,5.1001,5.1129,5.0993,5.0965,5.0981,5.0975,5.1071,5.1082,5.1114,5.1274,5.1279,5.1142,5.1147,5.1151,5.1154,0,0,0,0,0,0,0,5.0763,5.0783,5.0985,5.0925,5.0925,5.0909,5.092,5.1025,5.1044,5.0967,5.0962,5.0977,5.107,5.1106,5.1117,5.1281,5.1141,5.115,5.1155,5.1159,5.1578,5.1584,0,0,0,0,0,0,5.0756,5.0777,5.0981,5.0988,5.0834,5.0918,5.0931,5.0983,5.1043,5.1047,5.0981,5.0974,5.1092,5.1106,5.1121,5.1309,5.1151,5.116,5.1165,5.1573,5.1579,5.1585,0,0,0,0,0,0,5.0751,5.0775,5.0977,5.0882,5.0906,5.0928,5.0987,5.0988,5.1023,5.1054,5.1057,5.1014,5.1089,5.1107,5.1233,5.1312,5.1164,5.1173,5.1566,5.1575,5.1583,5.1687,0,0,0,0,0,0,5.0743,5.0774,5.0833,5.0883,5.0911,5.1087,5.0992,5.0993,5.1039,5.1031,5.1085,5.109,5.1086,5.122,5.1243,5.1322,5.118,5.1559,5.157,5.158,5.1676,5.1698,5.1716,0,0,0,0,0,5.0733,5.0856,5.0836,5.0861,5.0986,5.1092,5.1108,5.1102,5.1046,5.1106,5.1126,5.1088,5.13,5.1233,5.1258,5.1342,5.1554,5.1567,5.1579,5.1668,5.1694,5.1715,0,0,0,0,0,0,5.0812,5.0862,5.084,5.0984,5.1034,5.108,5.1155,5.1129,5.1196,5.1184,5.1174,5.1187,5.1319,5.1343,5.1267,5.1498,5.1419,5.1437,5.1477,5.1502,5.1522,5.1513,5.1188,0,0,0,0,0,5.0847,5.0929,5.0968,5.1091,5.1118,5.1133,5.1178,5.117,5.1222,5.1242,5.1272,5.1323,5.1402,5.1453,5.1527,5.168,5.1692,5.1751,5.1771,5.1787,5.1802,5.1887,5.1914,5.1627,5.1626,5.1626,0,0,5.0918,5.0956,5.1008,5.1108,5.1146,5.1232,5.1151,5.1244,5.1308,5.1256,5.1377,5.1401,5.1458,5.1599,5.1663,5.1623,5.1885,5.1803,5.1815,5.1822,5.1903,5.193,5.1954,5.1635,5.1633,5.1632,0,0,5.1092,5.1129,5.1236,5.1277,5.1337,5.1346,5.1373,5.1424,5.1438,5.156,5.1523,5.16,5.1734,5.1777,5.1817,5.2012,5.198,5.2037,5.214,5.2223,5.2246,5.2266,5.2336,5.2362,5.2052,5.2053,5.2053,0,5.1173,5.1301,5.1294,5.1392,5.1438,5.1397,5.1507,5.1546,5.1627,5.166,5.1615,5.1786,5.1822,5.1973,5.2021,5.2054,5.2085,5.203,5.2243,5.2263,5.2282,5.2349,5.2376,5.2059,5.2058,5.2058,5.2057,0,5.1399,5.1488,5.1568,5.1649,5.1704,5.1807,5.1816,5.1873,5.1861,5.1876,5.2002,5.2044,5.2127,5.2162,5.215,5.2314,5.2288,5.2244,5.2163,5.2316,5.2379,5.2405,5.2069,5.2066,5.2064,5.2063,0,0,5.1622,5.1701,5.1731,5.1768,5.1833,5.1902,5.2005,5.2087,5.2137,5.2195,5.2281,5.2398,5.2359,5.2404,5.2397,5.2471,5.2625,5.2418,5.2419,5.2455,5.2809,5.2842,5.2872,5.2605,5.261,5.2614,5.2805,0,5.1801,5.198,5.1979,5.2145,5.2229,5.2194,5.2283,5.2334,5.2351,5.2426,5.2445,5.2529,5.247,5.2497,5.2568,5.2591,5.2696,5.2577,5.2685,5.2689,5.2672,5.2905,5.2939,5.3117,5.2829,5.2833,5.2836,0,5.2033,5.2101,5.2275,5.2331,5.2366,5.2447,5.2524,5.2595,5.2652,5.266,5.2713,5.2696,5.2801,5.272,5.2865,5.2785,5.283,5.2848,5.2855,5.2864,5.2771,5.292,5.3173,5.32,5.2875,5.2872,5.2869,0,5.218,5.2315,5.2438,5.2471,5.2538,5.2596,5.2627,5.2679,5.273,5.2798,5.2831,5.291,5.2953,5.3015,5.3021,5.296,5.3169,5.3086,5.3179,5.3179,5.3223,5.322,5.3486,5.3252,5.3252,5.3251,5.3251,0,5.2379,5.2488,5.2505,5.2581,5.2702,5.2701,5.2821,5.2847,5.2895,5.2975,5.295,5.3026,5.3029,5.3107,5.3112,5.3233,5.3253,5.3263,5.3263,5.3265,5.3264,5.3293,5.3281,5.3258,5.3257,5.3255,5.3254,0,5.2563,5.2579,5.2711,5.2766,5.2782,5.2869,5.2916,5.2989,5.3006,5.3108,5.3132,5.3159,5.325,5.3262,5.3369,5.3372,5.3518,5.3505,5.3499,5.3497,5.3589,5.3581,5.3884,5.3924,5.3664,5.3666,5.3668,0,5.2689,5.2772,5.2837,5.289,5.2924,5.3009,5.3062,5.3065,5.3121,5.3194,5.3259,5.3348,5.3419,5.3567,5.3596,5.3678,5.3667,5.3768,5.3679,5.368,5.3669,5.3664,5.3673,5.3784,5.3787,5.379,5.3791,0,5.2911,5.2916,5.2993,5.3074,5.3138,5.3202,5.3262,5.3306,5.3317,5.3382,5.3476,5.3531,5.3642,5.3731,5.3813,5.3845,5.3821,5.382,5.3846,5.3848,5.3842,5.3847,5.3546,5.3812,5.381,5.3809,5.3808,5.3807,5.3071,5.3144,5.3202,5.3289,5.3335,5.3393,5.3465,5.3492,5.3571,5.3661,5.3659,5.3763,5.382,5.3928,5.3967,5.4049,5.4015,5.4053,5.4062,5.4071,5.4081,5.383,5.4063,5.4063,5.4062,5.4062,5.4061,0,5.3292,5.3329,5.3409,5.3495,5.3565,5.3538,5.3604,5.3663,5.3755,5.3812,5.3884,5.3993,5.4081,5.4118,5.4205,5.4263,5.4255,5.4286,5.4281,5.4289,5.4105,5.4074,5.4292,5.4292,5.4292,5.4291,5.4291,5.4291,5.3415,5.3539,5.3551,5.3698,5.3734,5.3836,5.3876,5.393,5.3975,5.4099,5.4172,5.4197,5.4246,5.4337,5.4416,5.4425,5.4458,5.4495,5.4499,5.4325,5.4302,5.428,5.4251,5.4502,5.4502,5.4677,5.4678,5.4679]},{"header":{"parameterUnit":"m.s-1","parameterCategory":1,"la1":30.2991,"la2":30.254,"lo1":-89.0895,"lo2":-89.0444,"dy":0.0017,"dx":0.0017,"nx":28,"ny":28,"refTime":"2025-04-13T21:00:00:Z","depth":0,"parameterNumber":3,"parameterNumberName":"V-component_of_WINDS"},"data":[0,0,0,0,0,0,0,0,0,0,0,0,0,0,0,0,0,0,0,0,0,0,0,0,0,0,0,0,0,0,0,0,0,0,0,0,0,0,0,0,0,0,0,0,0,0,0,0,0,0,0,0,0,0,0,0,0,0,-1.6643,-1.6643,0,-1.6654,-1.6654,-1.6654,-1.6674,-1.6674,-1.6675,-1.6675,-1.668,-1.668,-1.668,0,0,0,0,0,0,0,0,0,0,0,0,0,-1.6636,-1.6636,-1.6643,-1.6643,-1.6643,-1.6654,-1.6654,-1.6654,-1.6674,-1.6674,-1.6675,-1.6675,-1.668,-1.668,-1.668,0,0,0,0,0,0,0,0,0,0,0,0,0,-1.6642,-1.6636,-1.6643,-1.6654,-1.6656,-1.6654,-1.6654,-1.6654,-1.6674,-1.6674,-1.6675,-1.6675,-1.6681,-1.668,-1.668,-1.6666,0,0,-1.6679,-1.6679,0,0,0,0,0,0,0,0,-1.6642,-1.6642,-1.6653,-1.6654,-1.6655,-1.6663,-1.6653,-1.6658,-1.6673,-1.6667,-1.6675,-1.6676,-1.6674,-1.6674,-1.6675,-1.6666,-1.6666,-1.6679,-1.6679,-1.6678,-1.6678,0,0,0,0,0,0,0,-1.6641,-1.6642,-1.6647,-1.6653,-1.6654,-1.6658,-1.666,-1.6654,-1.6666,-1.6667,-1.6669,-1.667,-1.6674,-1.6675,-1.6675,-1.6666,-1.6679,-1.6679,-1.6678,-1.6678,-1.6649,-1.6649,0,0,0,0,0,0,-1.664,-1.6641,-1.6647,-1.6647,-1.665,-1.6658,-1.6659,-1.666,-1.6667,-1.6668,-1.6669,-1.6671,-1.6675,-1.6675,-1.6675,-1.6661,-1.6678,-1.6678,-1.6678,-1.665,-1.6649,-1.6648,0,0,0,0,0,0,-1.664,-1.664,-1.6646,-1.6645,-1.6646,-1.6657,-1.6657,-1.666,-1.666,-1.6668,-1.667,-1.6668,-1.6676,-1.6676,-1.6669,-1.6661,-1.6678,-1.6678,-1.665,-1.6649,-1.6649,-1.663,0,0,0,0,0,0,-1.6639,-1.664,-1.6635,-1.6645,-1.6646,-1.6641,-1.6657,-1.6659,-1.666,-1.6662,-1.6667,-1.6669,-1.6676,-1.6669,-1.6669,-1.6661,-1.6677,-1.6651,-1.665,-1.6649,-1.6632,-1.6629,-1.6627,0,0,0,0,0,-1.6639,-1.6628,-1.6635,-1.6635,-1.6641,-1.664,-1.6641,-1.6651,-1.6659,-1.6655,-1.666,-1.6669,-1.6662,-1.6668,-1.6668,-1.666,-1.6652,-1.665,-1.6649,-1.6633,-1.663,-1.6627,0,0,0,0,0,0,-1.6615,-1.6629,-1.6637,-1.6629,-1.6634,-1.6644,-1.6638,-1.6647,-1.6647,-1.6649,-1.666,-1.6661,-1.6653,-1.6656,-1.6662,-1.6648,-1.6658,-1.6657,-1.6646,-1.6643,-1.6641,-1.664,-1.6677,0,0,0,0,0,-1.6609,-1.6609,-1.6621,-1.6613,-1.6615,-1.6626,-1.6626,-1.6634,-1.6638,-1.6639,-1.6645,-1.6647,-1.6646,-1.6645,-1.6644,-1.6633,-1.6634,-1.6627,-1.6624,-1.6622,-1.6621,-1.6617,-1.6614,-1.6644,-1.6644,-1.6644,0,0,-1.6596,-1.6604,-1.6603,-1.6608,-1.6612,-1.6611,-1.6627,-1.6625,-1.6624,-1.6638,-1.6634,-1.6637,-1.6641,-1.6633,-1.6629,-1.6634,-1.6613,-1.6621,-1.6619,-1.6618,-1.6615,-1.6612,-1.6609,-1.6643,-1.6643,-1.6644,0,0,-1.6572,-1.6578,-1.6573,-1.6578,-1.6585,-1.6593,-1.6592,-1.6601,-1.6605,-1.6601,-1.6613,-1.6611,-1.6608,-1.6611,-1.6612,-1.6592,-1.66,-1.6592,-1.6578,-1.6574,-1.6572,-1.657,-1.6563,-1.6561,-1.659,-1.659,-1.659,0,-1.6554,-1.6555,-1.6568,-1.6566,-1.6569,-1.6585,-1.6579,-1.6583,-1.6589,-1.6589,-1.6596,-1.6595,-1.6598,-1.6592,-1.6587,-1.6587,-1.6586,-1.6591,-1.6571,-1.6569,-1.6567,-1.6562,-1.6559,-1.6589,-1.6589,-1.6589,-1.6589,0,-1.6533,-1.6533,-1.6528,-1.6537,-1.6538,-1.6534,-1.6547,-1.6547,-1.6555,-1.6562,-1.6558,-1.6563,-1.6565,-1.6564,-1.657,-1.6558,-1.6562,-1.6569,-1.658,-1.6563,-1.6558,-1.6556,-1.6588,-1.6588,-1.6588,-1.6588,0,0,-1.6493,-1.6511,-1.6509,-1.6514,-1.6525,-1.6524,-1.6521,-1.6525,-1.6525,-1.6529,-1.6527,-1.6526,-1.6534,-1.6535,-1.6543,-1.6539,-1.6525,-1.6548,-1.6548,-1.6544,-1.6513,-1.6508,-1.6505,-1.6531,-1.653,-1.653,-1.6513,0,-1.6472,-1.647,-1.6483,-1.6477,-1.6477,-1.6494,-1.6491,-1.6497,-1.6504,-1.6505,-1.6512,-1.6512,-1.6522,-1.6523,-1.6521,-1.6527,-1.6519,-1.6529,-1.6528,-1.6528,-1.6527,-1.6502,-1.6495,-1.6479,-1.6511,-1.6511,-1.6511,0,-1.6446,-1.6452,-1.6447,-1.646,-1.6461,-1.6458,-1.6464,-1.6465,-1.6472,-1.6477,-1.648,-1.649,-1.6488,-1.6499,-1.6496,-1.6502,-1.6503,-1.6507,-1.6506,-1.6506,-1.6518,-1.6502,-1.6474,-1.6472,-1.6507,-1.6508,-1.6508,0,-1.6419,-1.6425,-1.6423,-1.6426,-1.6441,-1.644,-1.6445,-1.6454,-1.6456,-1.646,-1.6462,-1.6465,-1.6467,-1.6469,-1.6479,-1.6486,-1.6475,-1.6487,-1.648,-1.6479,-1.6476,-1.6476,-1.6449,-1.6476,-1.6476,-1.6476,-1.6476,0,-1.6394,-1.639,-1.6411,-1.641,-1.6407,-1.6422,-1.6418,-1.6425,-1.6432,-1.6433,-1.6446,-1.6446,-1.6459,-1.646,-1.6468,-1.6465,-1.6466,-1.647,-1.6472,-1.6469,-1.6468,-1.6469,-1.6471,-1.6476,-1.6476,-1.6476,-1.6476,0,-1.6362,-1.6376,-1.6375,-1.6391,-1.6395,-1.6391,-1.6404,-1.6403,-1.6412,-1.6413,-1.6413,-1.6427,-1.6429,-1.644,-1.6443,-1.6449,-1.6443,-1.6447,-1.6442,-1.6443,-1.6436,-1.6436,-1.6408,-1.6405,-1.6434,-1.6434,-1.6433,0,-1.6345,-1.6343,-1.6359,-1.6362,-1.6368,-1.637,-1.6374,-1.6389,-1.6391,-1.6401,-1.6399,-1.6403,-1.6407,-1.641,-1.6419,-1.6422,-1.6427,-1.6417,-1.6427,-1.6425,-1.6428,-1.6428,-1.6428,-1.6414,-1.6414,-1.6414,-1.6413,0,-1.6314,-1.6322,-1.6327,-1.6335,-1.6339,-1.6346,-1.6353,-1.6353,-1.637,-1.6372,-1.6376,-1.6379,-1.6385,-1.6389,-1.6395,-1.6399,-1.6409,-1.641,-1.6409,-1.6406,-1.6403,-1.6405,-1.6436,-1.6411,-1.6411,-1.6411,-1.6411,-1.6411,-1.629,-1.629,-1.6302,-1.6308,-1.6315,-1.6322,-1.6323,-1.6334,-1.6338,-1.6345,-1.6353,-1.6356,-1.6365,-1.6374,-1.6378,-1.638,-1.6386,-1.6383,-1.6383,-1.6382,-1.6381,-1.6403,-1.6381,-1.6381,-1.6381,-1.6382,-1.6382,0,-1.6261,-1.6271,-1.6276,-1.6287,-1.6291,-1.6302,-1.6311,-1.6314,-1.6317,-1.6325,-1.633,-1.6335,-1.6339,-1.635,-1.6355,-1.6355,-1.636,-1.6356,-1.6356,-1.6357,-1.6376,-1.6377,-1.6352,-1.6352,-1.6352,-1.6352,-1.6352,-1.6352,-1.6247,-1.6248,-1.6257,-1.6262,-1.6271,-1.6276,-1.628,-1.6287,-1.6294,-1.6299,-1.6304,-1.6312,-1.6321,-1.6328,-1.6332,-1.6335,-1.6336,-1.6331,-1.6336,-1.6353,-1.6355,-1.6358,-1.6359,-1.6331,-1.6331,-1.6317,-1.6317,-1.6317]}]]